Weather History for KTIW - April, 2013

Change the Weather History Date:

Thursday, April 4, 2013

  Actual Average Record
Temperature  
Mean Temperature 52 °F -  
Max Temperature 55 °F 52 °F 64 °F (2002)
Min Temperature 48 °F 39 °F 34 °F (2009)
Degree Days  
Heating Degree Days 14    
Growing Degree Days 2 (Base 50)    
Moisture  
Dew Point 47 °F    
Average Humidity 85    
Maximum Humidity 94    
Minimum Humidity 74    
Precipitation  
Precipitation 0.24 in - - ()
Sea Level Pressure  
Sea Level Pressure 29.75 in    
Wind  
Wind Speed 4 mph (SSW)    
Max Wind Speed 14 mph    
Max Gust Speed 21 mph    
Visibility 7 miles    
Events Rain    
Averages and records for this station are not official NWS values.
T = Trace of Precipitation, MM = Missing Value Source: NWS Daily Summary

Daily Weather History Graph

Daily Weather History Graph

Search for Another Location

Airport or City:

Trip Planner

Search our weather history database for the weather conditions in past years. The results will help you decide how hot, cold, wet, or windy it might be!

Date:

Astronomy

Apr. 04, 2013 Rise Set
Actual Time 6:42 AM PDT 7:44 PM PDT
Civil Twilight 6:11 AM PDT 8:15 PM PDT
Nautical Twilight 5:34 AM PDT 8:53 PM PDT
Astronomical Twilight 4:54 AM PDT 9:33 PM PDT
Moon 3:35 AM PDT (4/4) 1:47 PM PDT (4/4)
Length of Visible Light 14h 04m
Length of Day
13h 02m
Waning Crescent, 32% of the Moon is Illuminated
Apr 4
Waning Crescent
Apr 10
New
Apr 18
First Quarter
Apr 25
Full
May 2
Last Quarter

Hourly Weather History & Observations

Time (PDT) Temp. Dew Point Humidity Pressure Visibility Wind Dir Wind Speed Gust Speed Precip Events Conditions
12:53 AM 51.1 °F 43.0 °F 74% 29.94 in 10.0 mi North 5.8 mph - N/A   Overcast
1:53 AM 50.0 °F 43.0 °F 77% 29.92 in 10.0 mi North 5.8 mph - N/A   Overcast
2:53 AM 48.9 °F 43.0 °F 80% 29.91 in 10.0 mi North 3.5 mph - N/A   Partly Cloudy
3:53 AM 48.9 °F 43.0 °F 80% 29.88 in 10.0 mi North 3.5 mph - N/A   Clear
4:53 AM 50.0 °F 43.0 °F 77% 29.86 in 10.0 mi Calm Calm - N/A   Overcast
5:53 AM 48.9 °F 43.0 °F 80% 29.83 in 10.0 mi Calm Calm - N/A   Overcast
6:53 AM 48.0 °F 43.0 °F 83% 29.81 in 10.0 mi Calm Calm - 0.00 in Rain Light Rain
7:53 AM 48.0 °F 44.1 °F 86% 29.77 in 8.0 mi North 5.8 mph - 0.01 in Rain Light Rain
8:53 AM 48.9 °F 44.1 °F 83% 29.76 in 10.0 mi Variable 6.9 mph - 0.01 in   Overcast
9:53 AM 48.9 °F 45.0 °F 86% 29.74 in 7.0 mi North 9.2 mph - 0.01 in Rain Light Rain
10:53 AM 48.9 °F 46.0 °F 90% 29.74 in 7.0 mi SSE 3.5 mph - 0.01 in Rain Light Rain
11:53 AM 51.1 °F 46.9 °F 86% 29.72 in 6.0 mi Calm Calm - 0.00 in Rain Light Rain
12:53 PM 51.1 °F 46.9 °F 86% 29.70 in 8.0 mi NNE 3.5 mph - 0.01 in Rain Light Rain
1:26 PM 51.8 °F 48.2 °F 88% 29.70 in 4.0 mi Calm Calm - 0.01 in Rain Light Rain
1:53 PM 50.0 °F 48.0 °F 93% 29.70 in 3.0 mi Calm Calm - 0.02 in Rain Light Rain
2:07 PM 50.0 °F 48.2 °F 94% 29.69 in 2.0 mi Calm Calm - 0.01 in Rain Light Rain
2:53 PM 51.1 °F 48.0 °F 89% 29.68 in 2.0 mi Calm Calm - 0.02 in Rain Light Rain
3:53 PM 51.1 °F 48.0 °F 89% 29.67 in 2.0 mi Calm Calm - 0.06 in Rain Light Rain
4:39 PM 51.8 °F 50.0 °F 94% 29.66 in 1.5 mi Calm Calm - 0.06 in Rain Light Rain
4:50 PM 51.8 °F 48.2 °F 88% 29.66 in 0.8 mi Calm Calm - 0.06 in Rain Light Rain
4:53 PM 52.0 °F 50.0 °F 93% 29.66 in 0.8 mi ESE 3.5 mph - 0.06 in   Overcast
5:53 PM 53.1 °F 50.0 °F 89% 29.68 in 3.0 mi South 13.8 mph - 0.01 in Rain Light Rain
6:53 PM 55.0 °F 50.0 °F 83% 29.69 in 10.0 mi South 13.8 mph 20.7 mph 0.00 in   Mostly Cloudy
7:53 PM 55.0 °F 48.9 °F 80% 29.70 in 10.0 mi SSW 8.1 mph - N/A   Overcast
8:53 PM 55.0 °F 48.0 °F 77% 29.72 in 10.0 mi South 10.4 mph - N/A   Overcast
9:53 PM 54.0 °F 48.0 °F 80% 29.74 in 10.0 mi SSW 8.1 mph - 0.00 in   Overcast
10:53 PM 53.1 °F 48.9 °F 86% 29.74 in 10.0 mi SSW 12.7 mph - 0.02 in Rain Light Rain
11:53 PM 53.1 °F 48.0 °F 83% 29.74 in 10.0 mi South 13.8 mph - 0.00 in   Overcast